Wind_Speed
2 4 2 3 3 6 4 0 3 2 3 7 11 12 10 9 9 11 11 10 9 9 10 13 15 16 16 16 15 16 18 18 19 21 22 22 22 21 21 19 17 15 9 10
3 2 4 3 4 2 4 2 3 6 4 6 7 9 9 9 9 9 9 9 9 9 12 11 13 14 14 15 15 15 16 16 18 21 23 23 22 22 21 19 13 10 11 11
3 4 4 3 4 4 1 2 2 3 1 3 7 10 10 9 7 8 8 7 7 7 10 13 13 13 14 15 14 15 15 16 19 23 24 24 24 23 19 15 13 12 12 11
2 3 4 3 6 0 3 5 6 4 4 3 5 6 7 5 7 8 8 8 7 10 11 12 12 12 14 14 15 15 15 17 20 23 24 25 25 22 17 15 13 12 13 11
1 0 2 1 3 3 2 3 5 2 3 5 7 6 6 3 3 4 6 9 13 15 14 13 14 14 15 14 14 15 16 17 20 22 24 25 24 21 17 15 14 13 13 11
2 2 3 3 3 2 1 2 6 1 4 4 1 3 3 4 5 7 14 17 17 15 16 15 15 16 17 16 14 13 14 15 17 19 21 24 23 20 17 14 13 12 12 11
3 2 2 4 10 4 4 3 4 4 4 1 2 0 6 8 6 13 16 18 17 16 16 14 16 18 18 16 14 13 13 13 14 16 17 20 21 19 17 15 14 11 11 10
1 3 3 14 3 5 2 3 4 3 2 2 4 7 7 8 8 12 15 16 16 17 15 13 14 16 17 15 15 14 13 13 14 14 15 17 18 18 15 15 15 14 12 9
2 2 3 4 4 4 2 4 4 3 3 4 5 4 5 6 7 11 15 16 15 16 14 12 13 14 18 17 17 17 15 15 14 14 15 16 17 17 16 15 14 13 12 10
1 4 3 5 3 6 6 4 4 4 2 2 3 6 5 6 6 10 14 15 15 16 15 13 12 13 16 19 19 19 18 17 15 15 15 15 15 15 14 14 13 12 11 10
2 3 2 0 2 3 5 4 5 5 4 2 4 5 5 5 7 12 15 14 16 17 17 15 15 16 16 18 19 19 18 16 15 14 13 14 12 11 11 10 10 11 10 8
3 3 3 5 3 4 3 3 3 2 4 4 3 6 8 6 14 16 16 15 14 14 15 15 15 15 16 17 16 17 16 14 14 14 13 12 11 10 8 7 7 8 7 7
3 2 4 5 4 2 2 3 3 0 2 2 2 7 10 7 16 16 16 15 16 17 16 15 15 14 15 15 14 13 12 13 13 12 12 11 11 10 10 8 7 8 8 8
1 2 3 1 2 4 3 4 5 3 3 2 3 4 8 10 14 18 19 18 15 15 16 16 16 14 14 14 13 12 11 11 12 11 11 11 10 9 9 9 9 10 10 8
3 2 4 4 5 5 4 3 3 3 3 4 2 5 10 12 15 19 17 15 15 16 16 17 16 16 14 14 13 13 13 13 12 12 11 11 11 11 11 11 11 10 10 10
6 5 4 4 5 4 3 3 1 4 2 2 2 3 7 10 13 15 16 18 20 21 20 19 18 16 16 15 14 13 12 12 12 12 12 12 12 12 13 13 13 12 12 12
2 2 3 2 2 3 3 4 5 5 5 6 6 3 5 7 8 14 16 18 18 16 17 18 17 16 17 17 16 15 14 13 11 13 13 13 13 14 14 13 14 15 15 13
5 4 5 5 4 3 5 5 6 8 8 7 5 6 9 12 14 15 16 17 18 17 17 17 16 17 18 18 18 17 17 16 16 17 15 15 16 15 15 16 16 15 15 15
7 7 7 8 10 9 10 11 10 8 9 9 10 13 14 15 15 14 13 17 18 19 22 18 18 19 20 19 19 19 18 17 17 17 17 16 16 17 16 16 16 16 15 15
4 5 6 8 7 8 11 11 11 13 12 11 11 13 14 16 16 15 15 20 23 23 19 15 19 20 19 19 18 19 19 19 19 17 17 17 18 18 18 17 16 17 17 17
8 9 9 9 10 10 11 12 13 15 13 10 12 16 18 17 14 16 15 15 23 20 19 16 16 18 20 20 19 22 21 20 19 18 17 17 16 15 16 17 18 18 19 20
4 5 9 11 11 15 15 13 13 15 15 14 13 15 15 17 15 17 21 21 17 12 17 21 21 19 18 18 21 23 23 21 20 19 18 18 18 19 20 20 21 22 21 21
8 9 11 11 12 14 16 15 12 11 13 14 15 14 16 18 17 16 11 17 21 21 17 18 16 18 18 17 21 20 21 21 21 20 19 18 18 19 20 21 21 22 21 21
7 9 10 11 10 10 11 13 13 13 13 13 14 13 14 15 17 18 18 15 9 10 15 20 18 16 17 22 22 21 20 19 19 19 19 19 20 20 20 19 19 20 21 20
8 9 10 10 9 11 12 14 15 14 12 12 12 11 12 14 17 10 8 12 17 14 14 13 15 17 19 22 23 23 21 20 20 20 21 21 20 20 19 20 20 19 19 20
9 11 11 9 9 10 12 12 13 15 13 13 12 9 9 10 13 14 14 13 12 13 18 17 15 18 20 22 22 21 21 21 22 21 21 19 18 19 20 19 19 20 20 21
7 7 6 9 8 11 11 12 12 13 13 10 12 9 7 7 9 10 12 13 14 14 14 19 19 16 19 21 21 21 21 21 21 20 20 20 20 20 20 19 19 20 21 22
Wind_Direction
304 319 350 295 322 333 358 218 114 170 119 154 154 143 127 119 124 126 129 131 130 125 118 121 128 133 135 141 148 154 157 160 162 162 164 161 161 160 159 158 156 156 165 156
318 347 4 316 322 272 316 338 49 93 79 133 120 111 125 130 136 134 126 120 120 122 123 121 129 132 138 145 152 160 161 164 165 164 164 165 163 160 159 157 165 169 164 164
291 356 16 26 338 287 284 12 34 64 160 137 139 139 140 135 135 137 130 127 126 125 127 130 133 142 147 152 155 159 162 165 167 166 166 166 164 161 164 167 163 163 167 164
270 10 37 258 341 122 88 38 356 13 74 87 101 74 81 124 139 132 129 125 120 129 132 139 138 137 144 151 156 158 161 165 168 171 171 171 169 167 164 164 166 172 168 166
60 214 268 91 9 30 17 51 350 2 79 101 126 89 49 67 91 122 122 128 138 142 137 140 149 149 146 145 151 161 164 166 171 176 176 176 175 173 171 168 171 173 173 172
26 78 22 19 338 298 190 74 10 114 130 149 175 113 153 141 100 100 125 141 142 140 137 140 148 158 155 153 156 160 166 170 175 180 183 183 184 181 179 179 177 176 185 185
10 30 340 342 317 294 83 350 3 99 101 3 71 136 125 118 89 123 134 140 140 139 138 141 149 158 156 155 155 152 157 166 173 180 187 190 187 187 184 178 184 185 180 185
17 43 7 350 353 59 317 347 42 74 91 63 85 102 106 112 123 127 128 136 140 134 131 139 152 160 155 155 153 153 156 158 163 168 174 178 183 178 184 185 182 182 186 195
115 32 34 358 41 20 30 44 23 45 25 117 110 114 128 136 134 138 140 141 145 143 137 140 152 167 156 156 157 154 152 151 156 164 171 175 177 179 177 181 185 187 199 208
54 22 7 4 3 20 12 40 11 24 41 78 140 147 134 139 141 142 150 149 150 148 143 139 148 160 161 157 160 157 150 148 150 155 159 169 178 183 186 187 193 199 204 219
296 341 2 38 60 308 341 8 24 17 30 96 135 156 156 152 158 162 160 161 163 160 152 146 147 147 151 155 159 157 153 151 153 155 165 167 176 187 193 200 211 216 226 230
237 242 190 265 300 330 4 342 344 30 354 356 162 171 163 168 175 171 169 166 166 166 163 158 159 156 157 159 166 166 165 169 172 174 172 176 182 185 199 214 218 227 230 231
242 221 224 272 278 343 316 329 326 301 282 297 305 185 179 167 183 180 177 177 179 178 176 171 170 169 171 176 181 186 188 179 179 185 188 191 194 200 206 211 214 229 237 246
229 55 328 344 283 315 302 317 338 336 348 316 287 194 183 176 177 183 187 190 186 184 183 183 183 182 183 186 188 189 188 192 195 199 201 205 212 215 213 216 224 235 236 246
347 228 229 282 301 308 307 321 354 336 340 342 305 218 188 178 186 195 193 189 187 189 190 191 194 194 194 196 198 198 197 198 207 211 215 219 219 218 224 233 241 249 261 257
309 287 268 259 290 306 323 331 302 290 290 283 298 249 222 213 205 197 192 191 185 196 199 201 205 201 202 201 202 204 207 213 218 221 221 221 225 230 235 239 243 247 253 260
41 332 334 312 259 287 242 250 236 248 282 283 274 253 214 207 200 199 201 204 211 219 214 213 215 206 210 212 215 216 217 212 213 227 226 230 234 239 243 242 242 245 255 260
220 231 232 229 254 262 289 278 283 279 257 273 277 232 203 196 209 211 210 209 214 219 220 220 215 214 217 218 220 221 224 224 223 227 234 235 240 244 244 245 247 248 255 264
222 241 260 255 260 256 269 278 284 285 282 279 253 234 232 232 230 226 213 210 215 221 228 218 216 220 222 221 223 224 227 230 231 233 236 240 239 240 241 242 247 254 259 262
244 247 271 274 270 254 273 287 295 290 287 273 262 251 248 242 234 226 219 219 226 231 236 225 224 227 228 225 218 229 231 233 235 237 238 238 240 242 243 245 254 257 261 266
272 287 286 287 285 290 287 298 299 291 300 283 253 252 249 254 243 228 217 228 239 234 235 230 229 230 230 229 220 228 234 233 234 235 236 235 241 244 245 247 251 255 261 271
290 288 297 305 298 298 306 308 296 290 288 284 271 260 258 253 241 232 234 235 253 244 233 236 234 232 229 225 226 227 231 233 235 238 239 242 245 248 250 254 259 263 268 271
302 302 304 305 308 305 309 312 316 304 287 283 275 265 249 251 247 221 235 246 248 244 235 238 238 232 223 221 225 226 227 232 237 240 242 246 248 251 257 264 268 267 267 268
300 306 304 314 313 308 309 325 326 318 304 297 286 275 262 255 253 250 249 244 248 246 235 239 234 224 220 223 229 230 233 238 240 240 242 252 256 258 260 263 265 269 270 270
310 312 313 319 320 318 323 329 326 330 325 310 303 286 264 253 247 264 262 252 241 235 240 238 229 225 224 227 230 235 238 242 245 246 252 257 254 255 262 267 269 269 268 269
316 313 315 315 308 322 326 331 323 330 325 320 322 312 284 263 254 252 253 251 245 234 232 239 229 221 227 231 235 236 241 246 248 247 250 249 253 259 264 267 267 265 266 272
343 344 353 346 349 348 345 338 335 325 334 320 310 327 301 278 259 251 253 253 248 246 243 237 236 232 235 235 237 240 243 248 251 245 242 251 259 261 265 267 268 269 272 276
Height
760 759 754 753 750 752 751 757 759 756 756 755 758 763 769 778 783 787 791 794 798 801 804 807 811 814 817 821 825 829 834 838 841 845 850 853 858 862 866 870 873 877 880 882
778 762 761 761 753 754 752 750 764 750 752 757 762 767 774 780 783 786 790 795 799 803 806 809 812 815 819 823 827 832 835 838 842 846 851 855 859 863 867 871 874 877 879 882
799 773 777 780 773 761 753 753 755 755 756 765 764 768 775 781 784 788 793 797 800 803 807 810 814 817 821 825 829 832 836 839 843 847 851 856 860 864 868 872 874 877 880 882
799 783 806 768 767 763 760 766 768 760 764 770 773 782 781 783 786 792 796 800 804 807 809 813 816 819 823 827 830 833 837 841 844 848 852 856 860 865 868 871 874 877 879 882
792 791 771 765 769 769 772 773 777 773 781 785 784 783 792 792 791 794 799 803 807 810 813 815 818 822 825 828 831 836 839 841 844 848 852 856 860 864 868 870 873 876 878 881
787 791 764 769 770 771 775 769 778 779 786 787 784 784 789 794 795 799 802 806 810 813 815 818 821 824 827 831 834 836 838 841 845 848 852 855 860 863 867 870 873 876 878 881
773 791 778 773 774 771 775 780 782 784 787 788 782 788 790 796 801 803 806 810 812 815 817 820 823 826 829 831 834 837 839 842 845 848 852 855 859 863 866 870 873 875 877 879
800 800 789 782 772 774 789 786 786 787 790 791 792 793 795 799 803 806 808 812 814 816 819 822 824 826 829 832 835 837 840 842 845 848 851 855 858 862 865 868 871 873 875 878
802 789 792 795 793 794 794 793 791 791 791 792 794 795 798 802 804 807 809 812 815 817 819 823 825 827 829 832 835 838 840 843 845 848 851 854 858 861 864 867 869 871 873 875
796 795 799 801 801 799 796 796 796 795 795 795 797 798 800 803 806 808 811 813 816 818 821 823 826 828 830 833 836 838 841 844 846 849 851 854 857 860 862 865 867 869 871 872
809 802 806 803 804 805 802 800 798 797 796 797 798 800 802 804 806 809 811 814 817 819 821 824 827 829 831 833 836 839 842 845 847 850 852 855 857 860 862 864 865 867 868 869
816 809 812 807 806 804 804 802 801 800 799 798 798 800 801 804 806 809 811 814 817 820 822 824 827 830 832 834 837 839 842 845 847 850 852 854 856 858 860 862 863 864 865 866
812 809 809 806 805 803 803 802 800 800 800 800 798 799 800 803 806 809 812 814 816 819 822 824 827 829 831 834 836 839 841 843 846 848 850 852 854 856 858 860 861 862 863 864
808 809 807 806 805 804 803 801 800 800 799 799 798 798 799 801 805 807 809 812 815 818 821 823 826 828 830 832 835 837 839 841 844 846 848 850 852 853 855 856 857 858 859 860
807 808 807 806 804 803 802 801 800 799 799 799 799 799 799 800 802 804 808 811 814 816 819 821 823 825 828 830 833 835 837 839 841 844 845 847 849 850 851 853 853 854 855 856
806 804 804 804 803 801 801 801 802 801 799 798 798 798 799 800 801 803 806 808 810 811 814 817 820 823 825 828 830 832 834 836 838 840 842 843 845 846 847 848 849 849 850 851
807 805 807 805 803 802 802 801 800 799 799 798 797 797 797 799 800 802 803 805 808 810 812 814 817 820 822 824 826 828 831 833 836 836 838 839 840 841 842 843 844 845 845 846
802 801 801 801 802 801 798 797 797 796 795 794 794 795 795 796 797 798 800 803 805 807 809 811 814 816 818 820 823 825 827 829 830 832 833 834 835 836 837 838 839 839 840 841
798 798 798 798 797 797 795 794 793 793 792 791 791 790 791 792 793 795 797 799 801 802 803 806 809 811 813 815 817 819 821 823 824 826 827 828 829 830 831 832 833 834 834 835
795 795 794 794 794 793 792 791 790 789 788 787 787 787 787 788 789 791 793 793 794 795 799 801 804 805 807 810 813 814 816 817 819 820 821 822 823 824 825 827 828 828 828 828
792 792 791 790 790 789 789 788 786 784 784 783 783 782 782 783 786 787 789 790 788 792 794 797 798 800 802 804 807 808 810 811 813 814 815 816 818 819 819 821 821 822 822 821
790 789 788 788 787 785 784 783 782 780 779 779 778 778 779 779 781 781 782 783 785 787 789 790 792 794 796 799 800 802 804 805 807 809 810 811 812 813 813 814 814 815 815 814
788 787 786 784 783 781 779 778 777 775 774 773 773 773 773 773 774 776 777 777 779 781 783 784 786 788 791 793 794 796 798 800 801 802 803 805 805 806 807 807 807 807 807 807
786 785 783 782 780 778 777 774 773 772 770 769 768 767 768 768 769 769 771 773 775 776 776 778 780 783 786 787 788 790 792 794 795 796 797 799 799 800 800 800 800 800 800 800
784 782 781 780 778 776 774 772 770 768 766 765 763 763 763 763 765 765 766 768 770 772 772 773 775 777 780 781 782 784 786 788 789 790 791 792 792 793 793 794 793 793 793 793
782 780 779 778 776 774 772 769 767 765 764 762 761 760 759 759 760 761 762 764 765 765 767 768 770 772 774 775 777 778 780 781 783 784 784 785 786 786 787 787 787 787 786 786
781 779 777 775 774 772 771 769 766 764 762 761 759 757 757 756 757 758 759 760 760 761 762 763 765 767 768 769 770 772 773 774 776 776 778 778 779 779 780 780 780 779 779 778